RH
75 54 41 44 48 56 38 26 23 19 22 41 65 83 63 33 17 14 14 12 13 15 17 23 35 44 46 45 43 43 47 51 53 51 50 51 55 52 52 52 44 35 44
71 55 41 40 45 56 53 35 32 26 23 21 17 16 19 15 12 12 12 11 9 8 9 14 18 26 36 42 46 44 48 50 50 54 54 52 55 56 51 44 36 21 14
69 57 47 40 44 47 62 46 42 41 37 29 28 29 33 32 30 29 28 22 16 13 14 14 14 19 27 29 38 47 49 51 52 52 53 54 53 55 53 54 51 41 25
58 51 40 40 45 46 50 61 48 38 36 34 34 35 35 37 39 38 36 39 42 38 24 13 13 15 19 24 29 40 47 50 52 54 53 54 54 55 57 56 54 54 44
54 48 43 46 46 40 41 56 62 55 44 45 45 37 39 41 41 40 37 35 36 38 42 44 31 13 14 17 19 27 36 40 47 50 54 52 52 52 58 64 63 57 56
46 50 50 52 52 47 44 48 61 63 60 58 49 44 42 42 42 40 37 36 34 32 29 26 33 47 36 13 16 22 19 21 28 39 45 47 52 54 56 56 64 66 62
47 47 54 59 58 53 50 49 53 58 61 58 58 52 45 41 40 40 38 38 35 35 34 30 28 24 30 50 32 12 19 28 24 25 29 36 41 46 56 59 60 65 71
47 45 43 58 62 60 54 52 51 46 54 58 56 54 50 44 41 40 39 38 37 36 35 34 31 29 26 24 44 52 24 11 18 28 26 25 28 32 48 55 58 61 63
47 46 37 46 53 53 48 52 53 50 50 50 48 42 38 34 32 31 32 32 32 34 36 34 32 31 30 26 23 23 48 51 19 13 19 28 28 34 40 44 49 56 60
48 43 38 42 47 46 44 41 42 43 41 36 32 30 29 28 28 27 27 27 27 27 27 29 30 30 29 28 27 24 23 25 61 38 13 16 34 39 42 43 47 58 60
43 42 40 39 40 40 38 36 34 32 31 30 29 27 26 23 21 18 17 16 16 17 18 19 21 23 24 25 28 27 25 24 24 37 58 30 15 33 44 52 69 58 62
35 34 34 34 34 34 33 32 31 30 27 24 19 15 12 10 10 10 10 11 11 11 10 10 11 12 14 17 19 20 22 23 24 24 25 36 53 28 31 46 65 64 59
29 30 30 28 26 23 21 19 17 14 13 12 11 12 13 13 12 10 8 6 6 6 7 8 10 11 12 12 13 14 15 17 20 23 24 25 28 39 38 26 42 72 71
21 21 20 18 16 15 14 13 12 13 15 16 14 10 5 3 2 2 2 3 3 3 3 3 3 2 2 2 4 7 11 12 14 16 19 22 24 26 30 40 26 26 45
17 18 18 18 17 15 15 16 17 17 15 9 4 2 3 3 4 4 4 4 4 4 4 4 3 3 3 3 3 3 2 3 4 10 14 16 19 24 24 25 28 39 28
24 22 20 19 19 20 21 21 18 12 5 2 3 4 4 5 5 5 5 5 5 5 5 5 4 4 4 4 3 3 3 3 2 2 3 6 11 14 18 23 24 24 32
29 24 21 22 22 23 22 19 11 3 2 3 4 5 5 6 6 6 6 6 6 6 6 6 6 5 5 4 4 4 4 3 3 3 2 2 2 3 6 12 16 19 25
36 30 26 24 24 24 21 12 4 2 3 4 5 6 7 7 7 8 8 8 8 8 8 8 7 7 6 6 5 5 5 4 4 4 3 3 2 2 2 2 4 9 14
36 31 28 29 29 25 14 4 2 3 4 5 6 7 8 8 9 10 10 10 10 10 10 10 9 9 8 7 7 6 6 5 5 4 4 3 3 2 2 2 2 2 4
28 29 30 32 29 20 7 2 3 4 5 6 7 8 9 10 11 12 12 13 13 13 12 12 11 11 10 9 8 7 7 6 5 5 4 4 3 3 3 2 2 2 2
20 26 27 31 29 14 2 3 3 4 5 6 8 8 10 11 12 13 13 14 14 14 14 14 13 12 12 10 9 8 8 7 6 5 4 4 3 3 3 2 2 2 2
20 21 28 32 29 7 3 3 4 4 5 6 7 8 9 10 11 12 13 14 15 16 16 16 15 14 13 12 11 10 8 7 6 4 4 3 2 2 2 2 1 1 1
31 25 28 36 26 5 3 4 4 4 5 6 7 8 8 9 10 11 12 13 14 15 16 16 16 16 15 14 12 11 10 9 7 5 3 2 2 2 2 1 1 1 1
32 32 31 36 22 6 4 4 4 4 5 5 6 6 7 7 8 8 10 11 12 14 15 16 16 16 16 15 14 12 11 10 9 8 6 4 2 2 1 1 1 1 1
11 20 26 30 26 9 6 5 4 4 4 4 5 5 6 6 6 6 7 10 13 17 18 18 16 15 15 15 14 14 13 12 11 10 8 6 4 2 2 1 1 1 1
24 20 25 35 31 16 8 6 4 4 4 4 5 5 6 5 6 10 21 41 54 51 30 16 11 11 12 13 14 14 14 14 13 12 10 9 7 4 2 2 2 1 1
Wind_Speed
17 14 12 9 7 4 1 3 5 5 4 4 8 7 6 7 6 5 5 5 4 2 1 2 4 4 4 4 4 4 3 3 4 5 5 6 6 5 4 4 5 5 6
18 16 14 11 8 6 4 3 2 4 3 3 3 3 6 6 6 6 7 7 6 5 4 2 1 2 2 2 3 4 4 4 3 2 3 3 4 4 5 5 5 5 5
18 17 15 13 10 8 5 4 3 2 2 3 2 1 2 3 5 6 7 7 6 6 6 6 4 3 2 1 1 2 3 3 3 3 1 1 1 2 2 3 4 5 6
17 18 16 14 12 11 7 5 4 4 3 3 2 1 1 1 3 4 4 5 5 6 6 4 4 3 2 2 2 2 2 3 3 3 3 2 1 1 1 2 3 3 4
17 17 16 15 14 13 12 9 7 6 6 5 4 4 3 3 3 4 4 4 4 5 5 5 5 4 3 2 2 4 4 3 4 4 4 3 3 3 3 3 3 3 3
12 15 18 18 17 16 14 12 10 8 9 9 8 7 7 7 7 7 6 6 6 6 6 6 6 5 5 5 3 3 4 5 5 6 6 6 5 4 4 5 5 5 5
13 15 19 21 21 18 17 16 14 12 13 13 12 12 12 12 12 12 12 12 10 10 10 9 7 7 6 6 6 5 5 4 6 6 8 8 8 7 6 6 7 6 6
16 14 15 21 22 20 21 19 17 16 14 15 15 15 15 15 16 16 17 16 16 14 14 13 12 10 9 8 7 7 7 6 7 7 8 9 9 10 9 8 7 8 8
16 14 14 16 19 21 20 20 19 18 17 17 17 17 18 18 19 19 20 21 20 19 18 17 16 15 13 11 10 9 8 9 9 9 10 9 9 10 12 12 10 10 10
15 14 12 11 14 17 16 15 16 16 18 19 20 20 21 22 23 23 23 23 23 23 21 21 20 19 17 16 14 13 12 11 11 10 10 10 10 12 13 12 12 12 12
14 14 13 12 14 15 16 17 19 20 21 22 24 25 26 27 27 28 27 28 27 27 26 25 24 23 23 21 20 18 17 15 14 13 12 12 12 12 13 14 15 15 14
15 16 16 16 16 18 19 21 22 24 25 27 28 28 29 29 29 29 29 29 29 29 29 28 28 28 27 26 25 24 23 21 19 18 17 15 14 15 15 16 18 16 18
17 18 18 19 21 23 24 25 26 27 28 28 29 29 30 29 29 29 29 28 28 28 29 29 29 29 29 29 28 28 27 26 24 24 23 21 20 19 20 19 19 19 22
21 22 23 24 25 26 27 28 28 28 29 29 29 28 26 25 23 23 23 23 23 23 24 24 24 25 26 26 27 29 29 29 28 28 28 27 26 25 24 24 24 24 22
24 25 26 26 27 28 28 29 29 30 29 27 25 23 21 21 21 20 20 20 20 20 21 21 21 22 23 24 25 25 26 27 29 30 31 32 32 31 32 31 29 28 27
26 28 28 29 29 29 29 29 29 28 26 23 22 21 20 20 20 20 20 20 20 20 20 20 20 20 21 22 22 22 23 25 26 28 30 34 35 36 37 35 35 34 32
29 30 31 30 30 30 30 29 27 25 23 21 21 21 20 20 20 21 21 21 21 21 21 22 22 22 22 22 22 22 22 23 23 25 27 30 33 37 39 39 39 38 37
32 31 32 32 32 31 30 28 26 24 23 22 22 22 22 22 22 22 22 22 23 23 23 23 24 24 25 25 26 26 25 25 25 25 26 28 30 33 36 39 42 42 41
34 34 34 33 32 30 28 26 25 25 24 24 24 24 23 23 23 23 24 24 25 25 26 26 26 26 27 27 28 28 28 28 29 29 29 30 30 31 33 35 38 41 42
34 34 34 34 32 30 28 27 27 27 26 26 25 25 24 24 24 24 24 24 25 26 27 28 28 28 28 28 29 29 29 29 29 31 32 32 32 32 33 35 36 37 39
31 33 34 33 32 30 29 29 29 28 27 27 26 26 25 25 24 24 24 25 26 26 27 28 29 29 29 28 28 30 29 29 29 30 32 33 33 34 35 35 36 37 37
32 33 33 33 32 32 31 31 29 28 28 27 27 26 25 24 24 25 25 26 26 27 28 29 30 31 31 30 28 27 26 27 28 27 31 33 34 34 35 36 36 37 37
33 33 33 34 33 33 33 32 30 30 29 28 27 26 25 25 25 25 25 26 27 27 28 29 30 31 31 31 30 29 29 29 26 24 26 29 30 33 34 35 37 37 37
35 35 34 34 34 33 32 32 31 31 30 28 26 25 24 23 24 24 25 27 28 28 29 30 31 31 30 31 30 29 28 30 32 30 27 27 27 28 30 32 35 36 38
31 35 37 37 35 34 33 32 32 30 29 27 26 24 23 23 23 23 25 26 28 31 32 33 32 32 31 30 30 30 30 30 31 33 31 30 26 28 27 28 31 34 37
29 31 36 36 35 34 33 33 32 30 28 26 24 22 22 21 21 23 27 32 37 38 36 34 32 31 31 30 30 31 31 32 33 34 35 32 32 30 26 26 28 31 33
Wind_Direction
193 185 181 179 171 174 20 75 116 121 121 90 87 82 60 62 59 59 54 56 52 61 109 130 146 152 150 148 144 138 119 108 94 90 85 86 78 74 75 71 51 50 60
200 194 192 191 191 177 155 147 149 144 143 125 104 60 58 58 55 53 46 48 47 48 43 40 105 146 180 173 156 152 150 147 136 97 84 70 70 58 45 35 38 40 56
206 203 204 201 206 206 195 181 199 198 196 182 173 99 56 47 48 47 50 48 45 43 36 26 27 8 339 272 217 164 162 166 162 163 155 123 79 50 29 23 14 19 21
205 209 210 211 214 221 227 228 224 227 236 257 261 215 229 14 22 25 32 32 40 43 36 31 24 13 353 338 313 263 221 199 197 195 202 212 254 291 307 320 339 351 1
221 220 221 222 224 232 235 239 245 250 255 255 262 277 293 312 332 334 346 351 5 20 24 22 20 5 350 339 296 280 270 259 247 231 226 223 232 251 274 275 288 297 308
234 226 228 231 233 239 246 249 254 259 267 269 270 274 284 295 303 306 310 318 326 333 343 345 346 345 348 330 309 277 271 268 267 265 257 248 238 242 257 256 255 252 260
248 244 241 235 237 239 248 251 256 259 270 275 275 277 282 288 291 294 298 301 303 306 309 308 306 311 314 309 311 300 284 281 271 266 266 265 258 250 255 264 261 261 255
257 258 261 240 239 241 244 251 254 261 267 271 274 276 278 280 284 286 288 287 288 290 290 291 291 291 293 293 294 298 297 282 269 268 268 265 263 256 260 260 271 267 265
254 257 257 247 237 244 252 253 261 264 261 263 269 275 280 282 283 284 284 284 283 281 282 283 283 284 285 284 282 282 287 288 283 268 262 265 266 265 257 259 265 270 269
255 257 251 242 244 251 257 252 255 260 264 268 270 272 274 277 279 279 280 280 281 282 280 278 277 276 275 275 276 275 275 276 278 278 270 262 260 264 265 259 253 258 261
253 255 256 249 246 250 255 259 263 267 270 272 273 275 277 278 279 278 277 276 276 276 275 275 274 273 273 273 272 271 271 271 273 275 275 271 263 260 262 259 259 252 253
242 247 252 257 260 261 263 266 268 271 272 275 276 278 278 278 278 278 278 277 276 275 274 273 272 272 271 269 269 268 267 266 266 266 265 267 266 260 258 255 260 262 254
256 259 262 264 266 268 269 270 271 273 274 276 276 277 278 278 278 277 278 277 277 277 276 275 274 273 272 271 268 268 268 265 264 264 262 261 262 263 261 257 253 257 257
261 261 263 265 268 270 272 274 275 276 276 276 277 277 276 276 276 277 279 281 280 279 279 279 278 277 276 273 270 268 266 266 264 262 262 261 259 259 261 260 256 254 255
270 270 269 269 270 271 273 275 277 277 277 275 275 274 274 275 278 280 281 282 284 285 285 285 284 283 281 279 276 273 270 267 264 262 261 261 259 258 257 259 263 265 263
272 270 270 271 273 275 277 277 276 275 273 272 272 274 276 278 280 282 284 285 287 288 288 289 288 287 285 283 281 279 275 273 270 265 262 261 261 260 259 257 257 258 262
271 271 272 274 276 278 279 277 275 270 267 268 270 271 274 275 276 277 278 280 282 285 286 287 287 286 286 285 284 283 280 276 272 270 266 263 262 262 262 261 259 256 255
269 267 266 269 271 272 273 271 267 264 264 265 267 270 272 274 277 279 280 281 283 284 285 286 287 288 288 289 288 287 285 283 281 276 272 269 265 263 262 263 263 261 259
270 271 272 274 274 272 267 261 258 259 261 263 266 268 271 274 276 278 281 284 287 288 288 287 287 287 286 285 283 283 283 283 282 280 277 273 270 268 266 263 263 264 262
269 270 272 272 270 267 263 259 258 257 259 261 264 268 272 273 276 279 282 285 286 287 288 288 287 286 284 284 282 280 279 277 277 276 276 275 273 270 268 266 265 264 264
270 267 266 266 264 261 258 255 254 255 257 260 263 266 269 273 277 281 285 288 290 291 292 291 290 288 285 283 284 284 282 281 279 277 275 273 272 272 270 268 266 264 263
267 268 267 265 263 259 256 254 254 255 258 260 263 267 271 276 282 287 290 292 294 294 295 294 293 291 288 285 281 278 278 277 276 275 276 276 276 273 272 272 269 267 264
266 266 264 262 259 258 257 256 256 257 258 261 263 268 274 280 284 288 291 294 296 296 296 295 293 291 290 288 287 283 277 271 267 268 270 273 274 275 276 276 276 275 272
270 268 265 262 259 259 258 258 257 258 259 261 265 270 275 282 288 293 296 297 298 298 297 296 295 293 292 291 290 289 285 281 279 271 271 269 270 272 275 275 275 276 275
280 269 264 262 260 260 258 257 257 258 260 262 266 271 278 284 289 294 296 298 299 300 299 298 296 295 295 295 294 294 291 286 283 280 273 270 274 274 274 274 273 273 275
300 281 266 260 258 258 258 258 257 257 257 259 265 272 277 284 293 298 301 301 299 297 295 293 294 295 297 297 297 297 297 298 296 293 288 280 274 274 274 278 278 276 274